Location: Newark
(44.6028°N, 124.0883°W)
Time: 14:37:31
(UTC+00:00)

Altair - All Passes

Search period start: 15 October 2019 00:00
Search period end: 25 October 2019 00:00
Orbit: 1501 x 1683 km, 47.2° (Epoch: 14 October)

Date Brightness Start Highest point End Pass type
(mag) Time Alt. Az. Time Alt. Az. Time Alt. Az.
15 Oct - 00:53:32 10° WNW 01:03:36 85° NNE 01:13:50 10° ESE daylight
15 Oct - 02:58:33 10° WNW 03:08:14 54° SW 03:18:00 10° SE visible
15 Oct - 05:05:29 10° W 05:11:23 17° SW 05:17:17 10° SSW visible
15 Oct - 18:18:47 10° SSE 18:25:02 20° SE 18:31:26 10° E daylight
15 Oct - 20:18:51 10° SW 20:28:12 60° SE 20:37:55 10° ENE daylight
15 Oct - 22:23:05 10° W 22:32:55 82° NNW 22:43:06 10° ENE daylight
16 Oct - 00:28:20 10° WNW 00:38:21 83° NNE 00:48:35 10° ESE daylight
16 Oct - 02:33:19 10° WNW 02:43:05 58° SW 02:52:56 10° SE visible
16 Oct - 04:39:52 10° W 04:46:21 19° SW 04:52:50 10° SSW visible
16 Oct - 17:54:20 10° SSE 18:00:02 18° SE 18:05:50 10° E daylight
16 Oct - 19:53:50 10° SW 20:03:04 56° SE 20:12:41 10° ENE daylight
16 Oct - 21:57:53 10° WSW 22:07:41 83° NNW 22:17:50 10° ENE daylight
17 Oct - 00:03:07 10° WNW 00:13:06 81° NNE 00:23:20 10° E daylight
17 Oct - 02:08:06 10° WNW 02:17:56 61° SW 02:27:51 10° SE visible
17 Oct - 04:14:20 10° W 04:21:18 22° SW 04:28:18 10° S visible
17 Oct - 17:30:01 10° SSE 17:35:02 16° ESE 17:40:07 10° E daylight
17 Oct - 19:28:51 10° SW 19:37:57 52° SE 19:47:25 10° ENE daylight
17 Oct - 21:32:42 10° WSW 21:42:27 85° NNW 21:52:35 10° ENE daylight
17 Oct - 23:37:54 10° WNW 23:47:52 80° N 23:58:04 10° E daylight
18 Oct - 01:42:53 10° WNW 01:52:46 64° SSW 02:02:45 10° SE visible
18 Oct - 03:48:51 10° W 03:56:15 24° SW 04:03:40 10° S visible
18 Oct - 17:05:52 10° SSE 17:10:03 14° ESE 17:14:16 10° E daylight
18 Oct - 19:03:52 10° SSW 19:12:50 49° SE 19:22:10 10° ENE daylight
18 Oct - 21:07:31 10° WSW 21:17:14 87° NNW 21:27:20 10° ENE daylight
18 Oct - 23:12:42 10° W 23:22:37 79° N 23:32:48 10° E daylight
19 Oct - 01:17:41 10° WNW 01:27:36 68° SSW 01:37:38 10° SE daylight
19 Oct - 03:23:27 10° WNW 03:31:11 26° SW 03:38:59 10° S visible
19 Oct - 16:42:03 10° SE 16:45:03 12° ESE 16:48:05 10° ESE daylight
19 Oct - 18:38:56 10° SSW 18:47:45 46° SE 18:56:54 10° ENE daylight
19 Oct - 20:42:21 10° WSW 20:52:01 89° NNW 21:02:05 10° ENE daylight
19 Oct - 22:47:29 10° W 22:57:21 78° N 23:07:32 10° E daylight
20 Oct - 00:52:29 10° WNW 01:02:24 71° SSW 01:12:30 10° SE daylight
20 Oct - 02:58:04 10° WNW 03:06:08 28° SW 03:14:14 10° S visible
20 Oct - 18:14:01 10° SSW 18:22:39 42° SE 18:31:37 10° ENE daylight
20 Oct - 20:17:12 10° WSW 20:26:49 88° SSE 20:36:51 10° ENE daylight
20 Oct - 22:22:17 10° W 22:32:07 77° N 22:42:16 10° E daylight
21 Oct - 00:27:18 10° WNW 00:37:13 75° SSW 00:47:20 10° SE daylight
21 Oct - 02:32:42 10° WNW 02:41:03 31° SW 02:49:27 10° S visible
21 Oct - 17:49:07 10° SSW 17:57:35 39° SE 18:06:20 10° ENE daylight
21 Oct - 19:52:03 10° WSW 20:01:37 85° SSE 20:11:36 10° ENE daylight
21 Oct - 21:57:05 10° W 22:06:52 77° N 22:17:00 10° E daylight
22 Oct - 00:02:06 10° WNW 00:12:01 78° SSW 00:22:10 10° ESE daylight
22 Oct - 02:07:24 10° WNW 02:15:58 33° SW 02:24:37 10° SSE visible
22 Oct - 17:24:16 10° SSW 17:32:31 36° SE 17:41:02 10° ENE daylight
22 Oct - 19:26:55 10° WSW 19:36:26 83° SSE 19:46:22 10° ENE daylight
22 Oct - 21:31:52 10° W 21:41:37 77° N 21:51:43 10° E daylight
22 Oct - 23:36:55 10° WNW 23:46:49 81° SSW 23:56:59 10° ESE daylight
23 Oct - 01:42:06 10° WNW 01:50:52 36° SW 01:59:45 10° SSE visible
23 Oct - 16:59:26 10° SSW 17:07:27 33° SE 17:15:43 10° ENE daylight
23 Oct - 19:01:47 10° WSW 19:11:15 79° SSE 19:21:08 10° ENE daylight
23 Oct - 21:06:40 10° W 21:16:22 77° N 21:26:27 10° E daylight
23 Oct - 23:11:44 10° WNW 23:21:37 84° SSW 23:31:47 10° ESE daylight
24 Oct - 01:16:50 10° WNW 01:25:45 39° SW 01:34:50 10° SSE daylight
24 Oct - 16:34:39 10° S 16:42:24 31° SE 16:50:23 10° ENE daylight
24 Oct - 18:36:41 10° WSW 18:46:05 76° SSE 18:55:54 10° ENE daylight
24 Oct - 20:41:28 10° W 20:51:08 77° N 21:01:11 10° E daylight
24 Oct - 22:46:33 10° WNW 22:56:25 87° SSW 23:06:34 10° ESE daylight
